GEFSMW_500_meanwind_168.txt.gz
Wind_Speed
32 33 33 35 35 36 36 37 38 41 44 46 48 50 52 53 55 56 57 58 58 58 57 57 56 56 55 55 54 54 54 53 52 51 50 49 48 46 44 43 41 41 41
30 31 31 31 32 34 35 37 39 40 43 45 47 49 49 50 52 53 55 57 57 57 58 57 56 56 56 56 56 56 55 55 54 53 52 51 49 48 46 45 43 42 42
28 28 30 30 31 32 34 37 38 39 41 42 44 46 47 49 50 52 52 53 53 54 56 57 57 57 57 57 56 56 57 56 56 55 53 52 51 49 48 46 44 43 42
27 28 29 29 30 31 33 35 37 37 38 39 42 44 45 46 48 49 49 50 52 53 55 55 57 56 55 55 56 56 56 56 56 56 55 54 52 51 50 48 46 44 43
27 28 28 29 30 31 31 32 35 36 37 38 39 42 42 44 45 46 47 48 49 50 52 53 55 55 55 54 55 55 55 55 56 57 56 54 53 52 51 49 48 46 45
26 27 27 28 28 29 31 32 33 35 37 38 38 40 42 43 44 45 46 47 47 47 48 51 53 54 54 53 53 54 54 54 55 56 56 55 53 52 51 49 49 48 46
26 26 25 26 27 29 30 32 32 33 35 37 37 39 40 42 42 44 45 46 46 46 47 48 50 52 53 53 53 51 51 52 53 53 54 54 54 52 51 50 49 47 46
26 26 26 27 27 29 30 31 31 31 32 33 35 37 40 41 42 43 45 46 46 45 46 47 48 50 51 51 50 50 49 50 49 50 52 53 53 51 50 49 48 46 46
26 26 26 27 29 30 30 29 29 29 30 31 33 34 35 38 42 43 43 44 45 45 44 45 46 47 48 48 48 48 48 48 48 48 49 51 51 50 48 48 48 46 45
26 26 26 27 27 27 28 28 28 28 29 30 32 33 34 35 37 39 41 43 43 43 44 43 45 46 46 46 47 47 48 48 46 46 47 49 50 50 47 47 47 45 44
27 26 26 27 28 28 29 29 29 28 28 29 30 31 32 33 34 35 37 38 40 41 43 43 44 44 44 44 45 45 45 46 46 45 45 46 47 48 47 45 44 43 43
27 26 26 27 28 29 28 28 29 28 27 27 28 29 30 30 31 32 34 36 37 39 40 41 41 42 43 43 43 43 44 45 45 44 45 45 45 46 45 44 42 42 43
27 27 27 28 28 28 27 28 28 28 27 26 26 27 28 30 31 32 33 34 35 36 37 38 39 40 42 42 42 42 44 44 44 44 44 44 44 44 44 44 42 41 42
27 27 28 28 27 27 28 27 27 27 26 25 25 25 27 28 29 30 31 32 34 34 34 36 37 38 40 41 41 40 43 43 43 43 43 43 44 44 44 45 43 42 42
27 27 28 28 27 28 28 28 28 26 25 25 24 25 26 26 27 28 28 29 31 31 32 33 34 36 38 39 39 39 40 42 42 42 42 43 43 44 44 44 43 42 42
28 28 28 28 28 29 29 28 29 28 27 26 25 25 25 24 25 26 27 28 28 29 30 32 34 34 35 36 37 38 38 40 40 40 41 42 43 42 42 42 42 41 41
30 30 29 29 29 30 30 30 29 29 28 26 25 24 23 23 24 26 27 28 28 29 30 31 32 32 33 34 34 34 35 38 38 38 39 41 42 41 41 40 41 40 40
30 30 30 30 30 31 31 31 30 28 28 26 25 24 24 23 24 25 26 27 28 28 29 29 30 29 30 31 31 31 32 34 35 36 37 39 39 39 40 40 39 38 38
31 32 31 31 31 32 32 31 30 29 28 26 25 25 24 24 24 25 25 24 25 25 25 25 27 27 28 28 29 30 31 32 32 33 35 37 37 36 38 38 38 38 37
32 33 32 32 33 33 32 31 30 28 28 27 26 26 25 24 23 24 24 24 24 24 24 24 25 26 27 27 27 27 30 31 32 33 33 34 35 36 36 37 37 37 37
34 34 33 33 33 33 32 32 30 29 28 27 27 26 26 24 23 23 23 22 22 22 22 23 24 25 26 26 26 28 28 30 31 33 32 32 33 35 36 36 35 35 36
35 35 34 33 33 33 32 32 30 28 27 27 27 25 24 23 23 22 21 21 22 22 22 22 23 24 25 25 26 27 26 27 29 31 32 33 34 34 34 35 35 34 34
36 36 35 34 34 33 33 32 31 29 28 27 26 25 24 23 23 22 21 21 22 22 22 23 23 23 24 24 25 25 26 26 28 30 31 33 33 32 32 32 33 33 33
37 36 36 35 34 33 32 31 30 29 28 27 26 25 24 23 23 22 21 21 21 21 22 21 22 23 23 23 24 25 25 25 25 27 29 29 30 30 30 31 32 32 32
37 37 36 35 34 32 32 31 30 29 28 27 26 25 24 24 23 23 22 22 22 22 22 22 22 23 23 23 23 25 24 24 25 26 26 27 28 29 28 29 31 32 32
37 37 36 34 33 32 31 31 30 29 28 26 25 24 24 24 23 22 22 21 22 22 21 21 21 22 23 23 23 23 23 23 24 25 26 26 27 28 28 28 29 29 30

GEFSMW_500_meanwind_174.txt.gz
Wind_Speed
33 33 34 35 36 37 37 39 40 42 43 43 44 45 46 47 48 49 50 50 50 52 54 55 55 56 55 55 54 53 54 53 52 52 52 50 50 49 48 47 46 45 44
32 32 34 34 35 36 36 38 38 38 40 41 42 42 43 45 47 48 48 49 49 51 52 53 54 56 56 56 55 54 55 54 53 52 53 52 51 50 50 49 48 47 46
30 32 33 33 33 34 35 35 36 36 37 39 39 40 41 42 45 46 47 47 48 49 50 51 52 53 55 55 55 55 55 54 53 53 52 52 51 51 50 50 50 48 48
30 32 32 31 31 33 34 34 34 34 35 37 39 39 40 41 43 45 45 46 46 47 48 49 50 51 52 53 53 54 54 54 53 53 53 52 51 51 51 51 50 49 49
30 30 30 30 31 32 31 31 32 33 34 35 36 38 39 41 42 43 44 45 46 46 47 48 49 49 50 51 52 52 53 55 54 54 54 53 52 52 52 51 50 50 50
29 29 30 30 30 29 28 29 30 31 32 33 34 36 37 39 41 43 43 43 44 45 46 47 47 48 49 50 50 50 52 53 53 53 53 52 52 52 51 51 51 50 50
29 29 29 29 28 27 27 28 29 29 31 32 32 33 35 37 38 39 41 41 42 44 45 46 46 46 47 47 47 49 48 49 50 51 50 50 50 50 49 49 49 49 49
28 29 29 28 26 26 26 26 27 27 29 30 30 31 33 34 35 38 39 40 41 42 43 44 44 44 45 45 45 46 46 46 47 48 48 49 48 48 48 47 47 48 47
28 28 27 26 26 26 26 26 26 27 28 29 30 31 32 34 34 35 36 38 38 39 41 41 42 42 43 44 44 43 44 45 45 45 46 46 45 45 44 44 44 44 45
27 27 25 25 25 26 26 26 27 28 29 29 29 30 32 33 33 33 33 35 36 38 39 38 39 39 40 41 42 43 43 43 44 44 43 43 44 43 42 42 42 42 43
26 26 25 25 25 26 27 27 28 29 29 28 29 30 32 33 32 31 32 33 34 36 37 37 37 36 37 40 41 41 42 42 42 42 42 41 42 42 40 40 41 42 43
26 25 25 26 26 27 26 27 28 29 29 29 30 30 32 31 30 30 31 32 32 33 34 34 34 34 36 38 39 39 40 40 40 40 39 39 40 41 40 40 40 40 41
25 26 27 26 27 26 26 26 27 28 28 29 30 30 30 29 28 28 28 29 30 31 31 32 33 34 36 36 37 38 37 37 38 38 38 38 38 39 40 41 41 41 41
27 27 27 27 27 27 27 27 27 28 29 30 32 31 30 29 28 27 27 26 26 27 29 31 32 33 34 35 35 35 34 34 35 36 37 36 37 38 40 40 40 40 40
28 29 28 28 27 26 27 28 28 29 31 31 32 31 30 29 28 27 26 25 25 26 28 29 31 32 32 33 32 32 32 32 33 34 35 36 36 37 38 38 38 38 38
29 29 28 28 27 27 27 28 29 30 31 31 31 30 29 28 27 26 25 25 26 27 28 29 29 30 30 30 31 31 30 30 32 33 33 34 34 35 36 37 37 36 37
29 28 28 28 27 28 28 29 30 30 31 31 30 29 28 28 27 26 25 25 26 26 26 27 27 27 27 28 28 29 30 30 30 31 31 32 33 34 36 36 35 36 36
29 28 28 27 28 28 28 29 29 30 30 30 29 29 28 27 26 25 25 25 26 26 25 26 26 26 26 26 27 29 29 29 30 30 30 31 32 33 34 34 35 35 35
29 28 28 28 28 29 29 30 30 30 31 31 30 30 29 27 24 24 24 25 25 26 26 25 25 25 25 26 27 28 28 28 28 29 29 30 30 32 33 32 33 32 32
30 29 29 28 28 28 29 31 31 31 31 31 31 29 28 26 24 24 24 25 25 25 25 25 25 25 25 25 25 26 26 26 26 27 28 28 29 30 30 30 30 31 31
29 29 29 28 28 29 31 31 31 31 31 31 30 29 27 26 25 25 25 26 26 25 25 25 25 25 24 24 25 25 25 26 26 26 27 27 28 28 27 28 29 29 30
30 29 29 28 29 30 30 31 31 31 31 31 30 29 28 27 26 26 26 26 26 25 24 24 23 23 24 24 24 24 24 25 25 25 25 26 27 27 27 28 28 27 27
30 30 30 30 30 31 31 31 32 32 31 30 30 29 28 27 27 27 27 27 26 25 23 23 23 23 24 23 23 23 23 24 25 24 24 25 25 25 26 26 27 27 26
31 31 31 31 31 32 32 32 33 32 31 31 30 29 28 27 28 29 28 28 27 25 24 24 23 23 24 23 23 23 24 24 23 22 23 24 24 25 25 25 25 25 25
32 32 32 32 33 33 33 33 33 33 32 31 31 30 29 29 29 29 28 27 26 25 24 23 24 24 23 23 23 23 23 23 22 23 23 23 23 23 24 24 24 25 24
33 33 33 33 34 34 34 34 34 34 34 33 32 31 30 30 30 29 28 27 26 25 24 23 23 22 22 22 22 22 22 23 23 23 23 22 22 22 23 23 24 24 23

GEFSMW_500_meanwind_180.txt.gz
Wind_Speed
30 30 31 32 33 33 34 34 35 36 37 38 39 40 41 42 44 46 47 49 50 50 50 50 51 51 52 52 52 52 52 54 53 53 53 52 52 50 50 50 49 49 49
30 30 31 32 32 32 33 33 34 35 37 38 39 39 40 42 44 44 45 46 47 48 49 50 50 50 51 51 52 52 53 54 54 54 54 54 53 52 51 51 51 51 50
30 30 31 32 32 32 33 33 34 35 37 38 39 40 41 41 42 42 42 43 45 46 47 49 48 49 50 51 52 52 53 53 54 54 54 54 54 53 51 51 52 52 51
30 30 30 30 31 32 32 32 33 34 36 37 38 39 40 40 40 40 40 42 44 45 46 47 47 48 50 50 51 50 51 51 52 53 53 54 54 53 52 51 51 50 50
29 29 29 29 30 30 31 31 32 33 34 35 36 37 38 38 39 39 39 40 42 44 46 46 47 48 49 50 51 50 49 49 50 51 52 53 53 53 53 51 50 49 49
28 28 28 28 29 29 30 30 31 32 32 33 34 35 36 36 37 37 37 38 40 42 44 47 47 48 48 48 48 49 48 48 48 48 50 51 51 51 52 52 50 49 49
27 27 27 27 27 27 29 29 30 31 31 32 33 33 33 34 35 36 35 37 38 39 40 43 44 46 47 46 46 47 47 45 45 46 48 48 49 50 50 51 51 50 49
27 27 27 26 25 26 27 28 29 30 30 31 31 32 31 32 33 33 34 35 36 37 37 39 40 42 43 45 44 44 44 43 43 44 45 45 46 47 48 49 50 49 48
27 26 25 25 25 25 27 28 29 29 30 30 31 30 30 30 31 32 33 34 34 35 36 37 38 37 39 41 42 41 41 41 42 41 41 42 42 44 45 46 46 47 46
26 25 24 24 25 25 26 28 29 28 28 28 28 28 27 28 28 29 30 31 32 33 34 33 34 35 36 37 39 38 38 39 40 40 40 40 42 42 43 44 45 45 45
25 24 23 23 24 26 26 27 28 27 27 27 27 26 26 26 27 27 28 30 32 32 32 31 31 31 32 33 35 36 36 37 38 38 39 39 41 40 41 43 43 42 43
24 23 22 23 24 25 26 26 26 26 27 27 26 25 25 25 25 25 26 27 29 30 30 30 29 30 30 31 32 34 35 35 36 36 37 37 37 38 39 39 39 39 40
23 22 22 23 23 24 25 25 25 25 26 25 25 24 24 24 24 25 26 26 27 28 27 27 28 28 29 30 30 32 33 33 34 35 34 35 35 35 36 36 36 37 38
22 22 22 22 22 23 24 23 23 24 24 24 24 24 24 24 25 25 26 26 26 26 25 25 26 26 27 28 30 30 31 31 32 33 32 32 33 33 35 35 35 36 36
21 22 22 22 22 22 22 22 22 22 21 22 22 23 23 24 25 25 25 26 25 24 24 24 24 24 26 27 29 29 30 29 30 30 31 32 32 32 33 33 34 34 35
22 22 22 21 22 21 21 21 21 21 22 22 23 22 24 24 25 25 25 24 24 23 22 22 23 24 24 25 27 28 29 29 28 29 31 32 32 31 31 32 33 33 34
22 22 21 21 21 20 21 22 22 22 22 23 24 23 24 25 25 25 25 24 22 22 21 21 22 23 24 26 27 28 28 28 28 29 30 31 30 31 31 32 32 33 33
24 23 23 23 22 23 23 23 22 22 22 23 24 24 25 25 25 24 24 23 22 21 21 21 22 23 25 26 26 26 25 27 28 28 28 28 29 30 32 33 32 32 32
25 26 25 24 24 23 23 23 23 22 22 23 23 23 24 24 25 25 25 24 22 22 22 22 22 23 24 25 26 26 26 26 27 27 28 29 30 31 32 31 30 30 30
26 25 24 24 23 23 23 23 23 24 24 23 23 23 24 24 25 26 25 24 24 24 23 23 24 25 25 25 26 26 27 27 27 28 29 29 30 30 30 29 29 28 28
25 25 25 25 24 24 24 24 25 25 24 24 24 24 25 25 26 26 25 26 26 25 25 25 26 26 26 27 27 27 28 28 28 28 29 29 28 28 27 28 27 27 27
26 26 26 25 25 25 25 25 25 25 25 25 25 26 26 27 28 27 27 27 27 27 27 27 27 27 27 28 28 29 29 28 28 28 28 28 27 26 26 26 26 26 26
27 27 26 25 25 25 25 25 26 26 26 27 27 27 28 29 30 29 29 29 28 27 28 28 28 28 28 29 29 29 28 28 27 27 27 26 25 25 25 25 25 25 25
27 26 26 26 25 25 25 26 27 27 27 27 28 29 30 31 31 30 30 30 30 30 30 30 30 29 28 28 28 27 26 26 25 25 25 25 25 24 25 25 25 25 24
27 26 25 25 25 25 26 27 28 28 29 29 30 31 31 32 31 31 31 32 32 32 32 32 31 30 29 28 27 27 25 24 24 24 23 22 22 22 22 23 23 23 23
28 27 27 27 27 26 27 28 29 30 30 31 32 32 33 32 32 32 33 33 34 35 34 33 32 31 29 28 27 26 25 24 23 22 21 21 20 20 20 21 21 22 22

GEFSMW_500_meanwind_186.txt.gz
Wind_Speed
29 29 30 31 32 33 34 35 35 35 36 36 37 37 38 39 40 41 42 43 43 44 45 46 47 48 49 49 50 51 51 51 51 51 50 50 51 50 50 50 50 50 50
29 30 31 32 33 33 34 34 35 35 36 36 36 36 37 39 40 41 42 43 44 44 46 47 48 49 49 49 50 51 50 50 51 51 51 51 51 51 50 51 51 51 51
29 30 31 32 33 33 33 34 35 35 36 36 36 37 38 39 40 41 42 43 43 44 45 47 47 48 48 49 49 49 49 50 50 52 52 52 53 52 51 51 51 51 51
30 30 31 31 32 33 34 34 35 35 35 36 36 37 38 38 39 40 41 41 41 42 43 44 45 46 47 47 47 48 49 50 50 51 52 52 52 53 52 51 51 50 50
30 30 30 31 32 32 33 34 34 34 34 36 36 37 37 38 38 39 40 40 41 41 41 42 42 43 44 45 46 47 47 48 48 49 50 50 50 51 50 49 49 49 48
29 30 30 30 30 31 32 33 33 34 34 35 36 36 37 37 37 38 39 39 39 40 39 38 38 38 40 42 43 44 45 46 47 46 47 47 48 48 47 47 47 47 46
29 29 29 29 29 30 31 32 32 33 33 34 35 35 35 36 37 37 36 36 36 37 37 37 36 37 37 38 39 40 41 42 43 43 43 44 46 46 45 45 46 45 44
28 29 29 29 29 30 31 31 30 31 32 34 34 33 34 34 35 35 34 33 34 34 35 35 36 35 34 35 35 35 37 39 41 42 41 42 43 43 44 45 44 44 43
28 28 29 29 30 30 30 31 31 31 32 32 32 32 33 33 33 33 33 32 32 33 33 33 33 32 33 33 34 35 36 38 38 39 39 40 40 41 42 43 43 45 44
28 28 29 30 30 31 31 31 31 31 31 31 31 32 32 31 31 31 31 31 31 31 31 31 32 31 32 32 33 33 35 35 36 37 38 38 39 40 40 42 43 44 44
27 28 29 30 31 31 31 30 30 30 30 30 30 30 30 29 29 29 29 30 30 29 30 30 31 31 31 31 31 32 34 34 34 35 36 37 36 36 37 39 40 41 41
27 28 29 29 29 29 29 28 29 29 29 28 28 28 27 27 27 28 28 28 28 28 28 29 29 30 30 30 30 31 32 33 33 35 35 34 34 34 35 36 37 37 37
27 27 27 27 28 28 27 27 27 27 27 27 26 26 25 26 26 27 27 27 26 27 27 27 27 28 28 28 29 30 30 31 32 32 31 31 31 30 31 33 35 35 35
27 27 27 27 27 27 26 26 26 26 26 26 24 24 24 25 25 25 25 25 25 26 26 26 26 27 27 27 28 29 29 28 28 28 29 29 28 28 29 30 32 33 34
27 26 26 26 26 26 25 25 25 25 25 25 24 23 23 24 24 24 24 24 24 24 25 26 27 27 26 27 28 28 28 27 26 27 28 28 27 27 28 29 30 31 33
25 25 25 25 25 25 24 24 24 24 24 24 23 22 23 23 23 24 24 24 24 23 24 26 26 26 26 26 27 26 26 25 25 26 27 27 27 28 28 29 30 31 32
25 25 26 25 24 23 23 23 23 24 24 24 23 22 23 24 24 24 24 24 24 24 25 26 25 26 27 26 24 24 23 24 25 25 26 27 27 27 28 29 30 31 31
26 26 25 25 24 23 23 23 23 23 23 22 22 23 23 24 25 25 25 24 24 25 26 25 25 27 27 26 25 24 24 24 24 25 26 27 27 27 28 29 29 30 31
26 26 25 25 24 23 23 23 23 23 23 23 23 23 24 25 25 25 25 24 25 25 25 25 26 26 26 25 24 24 25 24 25 25 26 28 28 28 29 30 30 30 31
27 26 25 24 24 24 24 24 23 22 23 23 24 24 25 26 25 25 25 25 26 26 26 27 27 26 25 24 24 25 25 24 24 25 27 28 28 28 29 30 30 30 30
27 27 26 25 25 26 25 24 23 23 24 25 25 25 26 26 26 25 25 26 27 27 28 28 27 26 25 24 25 25 25 25 25 26 26 26 27 29 29 29 29 29 29
27 27 27 27 27 25 25 24 24 25 25 25 26 26 26 26 26 27 27 28 28 28 27 28 27 26 25 25 26 26 26 26 26 26 26 27 28 28 28 28 28 27 27
28 27 28 27 26 25 25 25 25 26 26 26 26 26 26 26 27 28 28 28 28 29 29 28 27 26 26 27 28 28 28 27 27 27 27 28 28 28 27 27 27 26 25
28 27 27 27 26 26 25 26 26 26 27 28 28 27 27 27 28 29 29 30 30 30 29 28 28 28 28 28 29 29 28 28 27 28 29 29 29 27 26 26 25 24 24
28 28 28 27 27 26 27 27 26 27 27 28 27 27 28 28 29 30 31 31 31 30 29 28 28 28 28 28 28 28 28 28 28 28 28 27 26 25 25 24 24 23 22
29 28 28 28 27 27 27 27 27 27 28 28 28 28 29 30 31 31 31 31 31 30 29 29 28 27 27 27 27 27 27 27 27 27 26 25 24 23 23 22 21 21 20